Погода в Курдюмовке

Украина / Донецкая область     48°28′05″N   37°57′36″E
темп.,
°C
ветер,
м/с
пор.,
м/с
влажн.,
%
обл.,
%
осадки,
мм/ч
давл.,
гПа
погр.,
м
25 мая, ср
ср2500:00+11зюз2465100 0.0 101462
03:00+10з376822 0.0 1015172
06:00+10з257468 0.0 1016140
09:00+15з45565 0.0 1016685
12:00+18зсз564484 0.0 10162316
15:00+18зсз4550100 0.0 10171398
18:00+16з366264 0.0 1017229
21:00+12з117249 0.1 101813
26 мая, чт
чт2600:00+11юз227710 0.0 101915
03:00+10юз22805 0.0 101926
06:00+11юз25786 0.0 1018117
09:00+18юз355515 0.0 1017564
12:00+21юз674486 0.0 10172228
15:00+21юз81047100 0.0 10152413
18:00+14юз61385100 1.2 1016746
21:00+13зюз51188100 1.5 1016795
27 мая, пт
пт2700:00+10юз599311 0.0 1015278
03:00+9юз4119715 0.0 1015260
06:00+11зюз512935 0.0 1014358
09:00+17з812680 0.0 10141151
12:00+20з9125487 0.1 10142003
15:00+20з812515 0.2 10142077
18:00+19зсз59560 0.0 10141521
21:00+15юз226958 0.0 101524
28 мая, сб
сб2800:00+13ююз35798 0.0 101483
03:00+16ююз51271100 0.0 1013329
06:00+16юз61375100 0.0 1012409
09:00+18юз7146227 0.0 1012757
12:00+21юз9135399 0.0 10121263
15:00+22зюз8105412 0.0 10121422
18:00+20з487479 1.4 1012255
21:00+17ююз128389 2.8 101333
29 мая, вс
вс2900:00+15ююз238345 0.0 101356
03:00+14ююз378033 0.0 1014160
06:00+14юз248459 0.0 1014139
09:00+16ссз338778 0.0 1015359
12:00+19с427457 0.0 1016737
15:00+21ссв436594 0.0 1015901
18:00+20с5671100 0.0 1016648
21:00+15св4885100 0.0 1017206